Location: Unspecified
(0.0000°N, 0.0000°E)
Time: 23:26:24
(UTC+02:00)

NOSS 3-3 (A) - Visible Passes

Search period start: 27 August 2015 00:00
Search period end: 06 September 2015 00:00
Orbit: 955 x 1258 km, 63.4° (Epoch: 08 August)

Date Brightness Start Highest point End Pass type
(mag) Time Alt. Az. Time Alt. Az. Time Alt. Az.
27 Aug 7.0 21:49:27 10° W 21:53:03 13° WSW 21:55:54 10° SW visible
28 Aug 4.9 07:33:29 10° S 07:39:32 51° ESE 07:45:35 10° NE visible
28 Aug 6.6 21:01:49 10° WNW 21:08:09 25° WSW 21:14:06 10° SSW visible
29 Aug 6.0 06:49:53 10° SSE 06:54:52 26° ESE 07:00:01 10° ENE visible
29 Aug 5.8 20:15:56 10° NW 20:23:22 45° WSW 20:30:41 10° S visible
30 Aug 6.7 06:07:52 10° SE 06:10:03 12° ESE 06:12:44 10° E visible
31 Aug 4.1 07:10:08 10° SSW 07:16:23 78° ESE 07:22:40 10° NNE visible
31 Aug 7.0 20:40:10 10° WNW 20:45:11 17° WSW 20:49:37 10° SSW visible
01 Sep 5.2 06:26:02 10° S 06:31:47 39° ESE 06:37:35 10° NE visible
02 Sep 6.2 05:42:49 10° SSE 05:47:04 20° ESE 05:51:35 10° ENE visible
02 Sep 4.6 07:32:13 10° SW 07:37:52 35° WNW 07:43:27 10° N visible
03 Sep 3.9 06:47:11 11° SSW 06:53:15 70° WNW 06:59:29 10° NNE visible
03 Sep 7.4 20:20:16 10° WSW 20:22:17 11° WSW 20:23:26 10° SW visible
04 Sep 4.4 06:05:28 29° S 06:08:40 60° ESE 06:14:50 10° NE visible
05 Sep 5.4 05:23:39 30° ESE 05:24:01 30° ESE 05:29:28 10° NE visible
05 Sep 5.1 07:11:12 15° WSW 07:14:48 23° WNW 07:19:30 10° NNW visible
